[Date Prev][Date Next][Thread Prev][Thread Next] - [Date Index][Thread Index][Author Index]
2 Line ISS Keps 11-11
- Subject: [sarex] 2 Line ISS Keps 11-11
- From: "Dave Larsen PhD" <doc@xxxxxxxxxxx>
- Date: Thu, 11 Nov 2004 02:13:11 -0800
ISS
1 25544U 98067A 04316.21825209 .00085177 00000-0 66717-3 0 1139
2 25544 51.6362 295.4732 0009131 343.2600 109.9737 15.70801508341413
----
Via the sarex mailing list at AMSAT.ORG courtesy of AMSAT-NA.
To unsubscribe, send "unsubscribe sarex" to Majordomo@amsat.org
AMSAT Home